Flag for South Korea Weather past 2 weeks in Cheongju, South Korea

Now
77 °F

Sunny.


Feels Like: 79 °F
Forecast: 63 / 81 °F
Wind: 12 mph from Southwest

Location: Chongju Ab

Current Time: Jul 2, 2015 at 7:52:57 PM

Latest Report: Jul 2, 2015 at 7:00 PM


Visibility: 10 mi

Pressure: 29.56 "Hg

Humidity: 51%

Dew point: 57 °F

Location of CheongjuLocation

Historic Weather in Cheongju — Graph

°F

Cheongju temperature yesterday

Maximum temperature yesterday: 82 °F (at 1:00 PM)
Minimum temperature yesterday: 64 °F (at 11:00 PM)
Average temperature yesterday: 73 °F

Past Weeks' High & Low Weather Summary

 TemperatureHumidityPressure
High88 °F (Jun 23, 4:00 PM)94% (Jun 23, 4:00 AM)29.89 "Hg (Jun 23, 4:00 AM)
Low63 °F (Jun 20, 10:00 PM)31% (Jun 18, 5:00 PM)29.33 "Hg (Jun 26, 4:00 AM)
Average74 °F61%29.68 "Hg
* Reported Jun 17 6:00 PM — Jul 2 6:00 PM, Cheongju, Weather by CustomWeather, © 2015

Note: Actual official high and low records may vary slightly from our data, if they occured in-between our weather recording intervals... More about our weather records

Advertising

Cheongju weather history for previous 24 hours

 ConditionsComfort  
Time TempWeatherWind HumidityBarometerVisibility
6:00 PM
Thu, Jul 2
79 °FPartly sunny.13 mph48%29.53 "HgN/A
5:00 PM82 °FPartly sunny.10 mph40%29.53 "HgN/A
4:00 PM82 °FPartly sunny.8 mph35%29.53 "HgN/A
3:00 PM82 °FScattered clouds.7 mph35%29.53 "HgN/A
2:00 PM81 °FScattered clouds.7 mph37%29.56 "HgN/A
1:00 PM81 °FScattered clouds.7 mph39%29.56 "HgN/A
12:00 PM77 °FScattered clouds.3 mph51%29.59 "HgN/A
11:00 AM77 °FScattered clouds.7 mph54%29.59 "HgN/A
10:00 AM73 °FPartly sunny.8 mph61%29.59 "Hg6 mi
9:00 AM70 °FPartly sunny.9 mph73%29.59 "Hg5 mi
8:00 AM68 °FPartly sunny.7 mph78%29.59 "Hg4 mi
7:00 AM66 °FFog.6 mph78%29.56 "Hg3 mi
6:00 AM64 °FFog.1 mph73%29.56 "Hg2 mi
5:00 AM63 °FFog.3 mph77%29.56 "Hg2 mi
4:00 AM63 °FClear.7 mph83%29.53 "Hg4 mi
3:00 AM63 °FClear.6 mph83%29.53 "Hg4 mi
2:00 AM63 °FClear.7 mph77%29.53 "Hg5 mi
1:00 AM63 °FClear.7 mph77%29.53 "Hg6 mi
12:00 AM64 °FClear.8 mph73%29.53 "Hg10 mi
11:00 PM
Wed, Jul 1
64 °FPassing clouds.10 mph73%29.53 "HgN/A
10:00 PM66 °FPassing clouds.8 mph64%29.50 "HgN/A
9:00 PM70 °FPassing clouds.9 mph64%29.47 "HgN/A
8:00 PM72 °FPassing clouds.8 mph57%29.45 "HgN/A
7:00 PM77 °FPassing clouds.13 mph47%29.42 "HgN/A
Weather by CustomWeather, © 2015

See weather overviewHow to use our weather pages